This is the latest recevied weather packets stored in our database for station/object IK6ZNK-3. If no packets are shown the sender has not sent any weather packets the latest 10 day(s).
| Time | Temp. | Humidity | Pressure | Rain* | Wind** | Luminosity | Snow |
|---|---|---|---|---|---|---|---|
| 1777889406 | 22.78° C | 48% | 1010.7 hPa | 0 mm | - | - | - |
| 1777888808 | 22.78° C | 48% | 1010.5 hPa | 0 mm | - | - | - |
| 1777888207 | 22.78° C | 51% | 1010.7 hPa | 0 mm | - | - | - |
| 1777887607 | 22.22° C | 48% | 1011 hPa | 0 mm | - | - | - |
| 1777887008 | 22.22° C | 43% | 1010.9 hPa | 0 mm | - | - | - |
| 1777886407 | 22.78° C | 42% | 1010.8 hPa | 0 mm | - | - | - |
| 1777885806 | 22.78° C | 36% | 1010.9 hPa | 0 mm | - | - | - |
| 1777885207 | 22.22° C | 37% | 1011.1 hPa | 0 mm | - | - | - |
| 1777884607 | 22.22° C | 41% | 1010.9 hPa | 0 mm | - | - | - |
| 1777884007 | 22.78° C | 41% | 1011.2 hPa | 0 mm | - | - | - |
| 1777883407 | 22.22° C | 44% | 1011 hPa | 0 mm | - | - | - |
| 1777882807 | 21.67° C | 44% | 1011.3 hPa | 0 mm | - | - | - |
| 1777882207 | 21.67° C | 44% | 1011 hPa | 0 mm | - | - | - |
| 1777881607 | 21.67° C | 45% | 1011 hPa | 0 mm | - | - | - |
| 1777881006 | 21.67° C | 45% | 1011 hPa | 0 mm | - | - | - |
| 1777880407 | 21.67° C | 44% | 1010.8 hPa | 0 mm | - | - | - |
| 1777879807 | 21.67° C | 43% | 1010.8 hPa | 0 mm | - | - | - |
| 1777879207 | 21.67° C | 49% | 1010.7 hPa | 0 mm | - | - | - |
| 1777878607 | 22.22° C | 45% | 1010.7 hPa | 0 mm | - | - | - |
| 1777878007 | 21.67° C | 55% | 1010.7 hPa | 0 mm | - | - | - |
| 1777877407 | 20.56° C | 57% | 1010.6 hPa | 0 mm | - | - | - |
| 1777876807 | 20° C | 56% | 1010.5 hPa | 0 mm | - | - | - |
| 1777876207 | 20.56° C | 55% | 1010.4 hPa | 0 mm | - | - | - |
| 1777875606 | 21.67° C | 48% | 1010.5 hPa | 0 mm | - | - | - |
| 1777875006 | 20.56° C | 51% | 1010.3 hPa | 0 mm | - | - | - |
* Rain latest hour (hover to see other rain measurements)
** Current wind speed in m/s (hover to see current wind gust speed)